Location: Molveno
(46.1500°N, 10.9667°E)
Time: 08:04:17
(UTC+00:00)

Meteor 1-11 - Pass Details

Date: 05 July 2020
Orbit: 842 x 886 km, 81.2° (Epoch: 05 August)

Event Time Altitude Azimuth Distance (km) Brightness Sun altitude
Exits shadow 21:05:31 - 197° (SSW) 2,696 6.4 -14.6°
Reaches altitude 10° 21:06:07 10° 198° (SSW) 2,470 6.3 -14.7°
Maximum altitude 21:11:42 71° 283° (WNW) 907 4.5 -15.2°
Drops below altitude 10° 21:17:24 10° 7° (N) 2,516 7.5 -15.7°
Sets 21:19:53 0° 10° (N) 3,465 8.2 -15.9°
